Location: Jetmore Oil Field
(38.1181°N, 99.9337°W)
Time: 06:17:51
(UTC+00:00)

SL-4 R/B - Pass Details

Date: 17 February 2020
Orbit: 428 x 667 km, 51.6° (Epoch: 09 April)

Event Time Altitude Azimuth Distance (km) Brightness Sun altitude
Rises 02:58:23 0° 309° (NW) 2,948 6.6 -31.9°
Reaches altitude 10° 03:00:47 10° 309° (NW) 2,008 5.5 -32.3°
Enters shadow 03:02:43 24° 308° (NW) 1,276 4.3 -32.7°
